Orbital Elements
Epoch 2011 June 8.0 TT = JDT 2455720.5
T 2011 June 7.40069 TT MPCW
q 8.0178670 (2000.0) P Q
z -0.0001252 Peri. 39.96439 +0.94225504 +0.23006163
+/-0.0000003 Node 54.94137 +0.17645126 -0.95869151
e 1.0010042 Incl. 162.70399 +0.28464083 -0.16727890
From 1660 observations 2006 Dec. 27-2015 July 17, mean residual 0".6.
|